星链-1820 (STARLINK-1820 )

导读 | 豆包AI

STARLINK-1820是美国SpaceX公司星链(Starlink)卫星互联网星座中的一颗v1.0版本卫星,于2020年10月18日发射升空。作为星链星座组网的重要组成部分,它运行在550公里近地轨道,配备Ka波段通信能力,携带遮阳板降低光污染对天文观测的影响,依托霍尔推进器实现轨道调整,助力为全球提供低延迟高速卫星互联网接入服务。

Basic Information
目录编号:
46717
目录名称:
STARLINK-1820
国际标识:
2020-073AZ
轨道中心:
EARTH
卫星名称:
星链-1820
卫星全名:
星链-1820 (STARLINK-1820 )
卫星状态:
在轨 (已飞行1973 天)
发射日期:
2020-10-18 UTC
国别 :
美国 (US)
星等 :
--
Orbit Information
数据来源 国际轨道数据 AOE轨道数据
星历时间 2026-03-14T08:00:02+0800
9小时前
查看轨道信息
2026-03-14T08:00:00+0800
9小时前
查看轨道信息
半长轴 6679.052km 6679.08km
偏心率 0.0006553 0.0005953
轨道倾角 53.038° 53.040°
近地点辐角 356.716° 2.418°
升交点赤经 140.477° 140.480°
平近点角 238.543° 232.682°
近地点 296.538km 296.966km
远地点 305.292km 304.92km
周期 90.538分钟 90.539分钟
每日圈数 15.904888 15.904787
Detailed Information
固有亮度:
5
最大亮度:
2.5
卫星平台:
Starlink V1.0
覆盖范围:
全球
运营商:
太空探索技术公司
运营商所在国:
美国
制造商(研发单位):
太空探索技术公司
制造商所在国:
美国
使用方式:
暂无
Satellite Introduction
星链(Starlink)计划是由太空探索技术公司(SpaceX)提出的一个巨型低轨卫星互联网星座项目,计划在2019年至2024年间在太空搭建由约1.2万颗卫星组成的“星链”网络,其中1584颗将部署在地球上空550千米处的近地轨道,并从2020年开始工作。该卫星仍在工作。
2D Orbit Map
3D Orbit Map
Orbit Altitude Analysis Chart
Orbit Inclination Analysis Chart
Orbit Comprehensive Analysis Chart
View Comprehensive Chart